User: anonymous   Login
Location: Cutler
(25.6150°N, 80.3110°W)
Time: 18:45:27
(UTC-05:00)
Language:

Hubble Space Telescope - Orbit

View from above orbital plane
View from above orbital plane
View from above satellite
View from above satellite

Ground track
Ground track

The orbit data is extracted from the following two-line orbital elements,

1 20580U 90037B   17326.57560038 +.00000747 +00000-0 +34990-4 0  9994
2 20580 028.4706 040.8103 0002979 077.5752 058.7941 15.08926090314147
Epoch (UTC): 22 November 2017 13:48:51
Eccentricity: 0.0002979
inclination: 28.4706°
perigee height: 537 km
apogee height: 541 km
right ascension of ascending node: 40.8103°
argument of perigee: 77.5752°
revolutions per day: 15.08926090
mean anomaly at epoch: 58.7941°
orbit number at epoch: 31414

The dashed part of the orbit path shows where the satellite is in the earth's shadow,  

DLR